Regional Weather Roundup
Issued by NWS

Home | Current Version | Previous Version | Text Only | Print | Product List | Glossary Off
Versions: 1 2 3 4 5 6 7 8 9 10 11 12 13 14 15 16 17 18 19 20 21 22 23 24 25 26 27 28 29 30 31 32 33 34 35 36 37 38 39 40 41 42 43 44 45 46 47 48 49 50

419
ASUS43 KIND 181459
RWRIN

WEATHER ROUNDUP FOR INDIANA
NATIONAL WEATHER SERVICE INDIANAPOLIS IN
1000 AM EST SUN FEB 18 2018

NOTE: "FAIR" INDICATES FEW OR NO CLOUDS BELOW 12,000 FEET WITH NO
SIGNIFICANT WEATHER AND/OR OBSTRUCTIONS TO VISIBILITY.

* - STATION DOES NOT REPORT WEATHER SUCH AS PRECIPITATION OR FOG.

+ - STATION NOT QUALITY CONTROLLED BY THE NATIONAL WEATHER SERVICE.
    USE DATA WITH CAUTION...ESPECIALLY DEWPOINT AND RELATIVE
    HUMIDITY OBSERVATIONS.

INZ001>003-010>013-019-020-181600-
NORTHWEST INDIANA

CITY           SKY/WX    TMP DP  RH WIND       PRES   REMARKS
GARY /AIRPORT/ MOSUNNY   27  27 100 S8        30.27F WCI  18
KNOX *+        CLOUDY    27  25  93 SE15      30.29F WCI  15
MONTICELLO +   CLOUDY    28  25  89 SE8G16    30.31S WCI  19

$$

LMZ046-743>745-181600-
SOUTHERN LAKE MICHIGAN

STATION/POSITION TIME  TEMP    WIND        PRES    WAVE
                       AIR SEA DIR/SP/G            HT
                 (UTC) (F)     (DEG/KT/KT) (MB)    (FT)
BURNS HARBOR     1440   26     170/  9/ 17 1025.1F
MICHIGAN CITY    1430   25     140/ 11/ 12   N/A

$$

INZ004-005-014>016-021>024-181600-
NORTH CENTRAL INDIANA

CITY           SKY/WX    TMP DP  RH WIND       PRES   REMARKS
GOSHEN         CLOUDY    28  22  78 SE14      30.29F HAZE    WCI  17
SOUTH BEND     PTSUNNY   25  22  88 S14       30.27F WCI  13
WARSAW +       CLOUDY    28  25  86 SE9       30.30F WCI  20

$$

INZ006>009-017-018-025>027-181600-
NORTHEAST INDIANA

CITY           SKY/WX    TMP DP  RH WIND       PRES   REMARKS
AUBURN +       CLOUDY    30  27  86 S3        30.34F
FORT WAYNE     CLOUDY    30  25  81 S8        30.34S WCI  22
KENDALLVILLE + CLOUDY    28  24  84 S6        30.31S WCI  22

$$

INZ028-029-035-036-043>045-051>053-181600-
WEST CENTRAL INDIANA

CITY           SKY/WX    TMP DP  RH WIND       PRES   REMARKS
LAFAYETTE      CLOUDY    29  27  92 S8        30.32S WCI  21
TERRE HAUTE    FAIR      32  29  88 SE8       30.33F WCI  25

$$

INZ030>032-037>040-046>048-054>057-064-065-181600-
CENTRAL INDIANA

CITY           SKY/WX    TMP DP  RH WIND       PRES   REMARKS
GREENWOOD *+   CLOUDY   N/A N/A N/A SE8       30.35F
INDIANAPOLIS   CLOUDY    31  27  85 SE15      30.34F WCI  20
-EAGLE CREEK   CLOUDY    31  26  82 SE7       30.33F WCI  24
KOKOMO +       CLOUDY    29  26  89 S14       30.34F WCI  18
MT COMFORT *+  CLOUDY    30  28  93 SE8       30.34F WCI  23
SHELBYVILLE    CLOUDY    32  26  78 SE9       30.35S WCI  24

$$

INZ033-034-041-042-049-050-058-059-181600-
EAST CENTRAL INDIANA

CITY           SKY/WX    TMP DP  RH WIND       PRES   REMARKS
MUNCIE         CLOUDY    30  25  81 S7        30.34S WCI  23
RICHMOND +     CLOUDY    30  28  93 SE8       30.37R WCI  23

$$

INZ060-061-067>069-081>083-085>088-181600-
SOUTHWEST INDIANA

CITY           SKY/WX    TMP DP  RH WIND       PRES   REMARKS
EVANSVILLE     FOG       31  31 100 NE5       30.34F VSB<1/4 WCI  26
HUNTINGBURG +  FAIR      35  35 100 E5        30.35S WCI  31

$$

INZ062-063-066-070>080-084-089>092-181600-
SOUTH CENTRAL AND SOUTHEAST INDIANA

CITY           SKY/WX    TMP DP  RH WIND       PRES   REMARKS
BLOOMINGTON    FAIR      33  30  88 SE8       30.34R WCI  26

$$





USA.gov is the U.S. government's official web portal to all federal, state and local government web resources and services.